SCP
0 0 0 0 0 0 0 0 0 0 0 0 0 0 0 0 0 0 0 0 0 0 0 0 0 0 0 0 0 0 0 0 0 0 0 0 0 0 0 0 0 0 0 0
0 0 0 0 0 0 0 0 0 0 0 0 0 0 0 0 0 0 0 0 0 0 0 0 0 0 0 0 0 0 0 0 0 0 0 0 0 0 0 0 0 0 0 0
0 0 0 0 0 0 0 0 0 0 0 0 0 0 0 0 0 0 0 0 0 0 0 0 0 0 0 0 0 0 0 0 0 0 0 0 0 0 0 0 0 0 0 0
0 0 0 0 0 0 0 0 0 0 0 0 0 0 0 0 0 0 0 0 0 0 0 0 0 0 0 0 0 0 0 0 0 0 0 0 0 0 0 0 0 0 0 0
0 0 0 0 0 0 0 0 0 0 0 0 0 0 0 0 0 0 0 0 0 0 0 0 0 0 0 0 0 0 0 0 0 0 0 0 0 0 0 0 0 0 0 0
0 0 0 0 0 0 0 0 0 0 0 0 0 0 0 0 0 0 0 0 0 0 0 0 0 0 0 0 0 0 0 0 0 0 0 0 0 0 0 0 0 0 0 0
0 0 0 0 0 0 0 0 0 0 0 0 0 0 0 0 0 0 0 0 0 0 0 0 0 0 0 0 0 0 0 0 0 0 0 0 0 0 0 0 0 0 0 0
0 0 0 0 0 0 0 0 0 0 0 0 0 0 0 0 0 0 0 0 0 0 0 0 0 0 0 0 0 0 0 0 0 0 0 0 0 0 0 0 0 0 0 0
0 0 0 0 0 0 0 0 0 0 0 0 0 0 0 0 0 0 0 0 0 0 0 0 0 0 0 0 0 0 0 0 0 0 0 0 0 0 0 0 0 0 0 0
0 0 0 0 0 0 0 0 0 0 0 0 0 0 0 0 0 0 0 0 0 0 0 0 0 0 0 0 0 0 0 0 0 0 0 0 0 0 0 0 0 0 0 0
0 0 0 0 0 0 0 0 0 0 0 0 0 0 0 0 0 0 0 0 0 0 0 0 0 0 0 0 0 0 0 0 0 0 0 0 0 0 0 0 0 0 0 0
0 0 0 0 0 0 0 0 0 0 0 0 0 0 0 0 0 0 0 0 0 0 0 0 0 0 0 0 0 0 0 0 0 0 0 0 0 0 0 0 0 0 0 0
0 0 0 0 0 0 0 0 0 0 0 0 0 0 0 0 0 0 0 0 0 0 0 0 0 0 0 0 0 0 0 0 0 0 0 0 0 0 0 0 0 0 0 0
0 0 0 0 0 0 0 0 0 0 0 0 0 0 0 0 0 0 0 0 0 0 0 0 0 0 0 0 0 0 0 0 0 0 0 0 0 0 0 0 0 0 0 0
0 0 0 0 0 0 0 0 0 0 0 0 0 0 0 0 0 0 0 0 0 0 0 0 0 0 0 0 0 0 0 0 0 0 0 0 0 0 0 0 0 0 0 0
0 0 0 0 0 0 0 0 0 0 0 0 0 0 0 0 0 0 0 0 0 0 0 0 0 0 0 0 0 0 0 0 0 0 0 0 0 0 0 0 0 0 0 0
0 0 0 0 0 0 0 0 0 0 0 0 0 0 0 0 0 0 0 0 0 0 0 0 0 0 0 0 0 0 0 0 0 0 0 0 0 0 0 0 0 0 0 0
0 0 0 0 0 0 0 0 0 0 0 0 0 0 0 0 0 0 0 0 0 0 0 0 0 0 0 0 0 0 0 0 0 0 0 0 0 0 0 0 0 0 0 0
0 0 0 0 0 0 0 0 0 0 0 0 0 0 0 0 0 0 0 0 0 0 0 0 0 0 0 0 0 0 0 0 0 0 0 0 0 0 0 0 0 0 0 0
0 0 0 0 0 0 0 0 0 0 0 0 0 0 0 0 0 0 0 0 0 0 0 0 0 0 0 0 0 0 0 0 0 0 0 0 0 0 0 0 0 0 0 0
0 0 0 0 0 0 0 0 0 0 0 0 0 0 0 0 0 0 0 0 0 0 0 0 0 0 0 0 0 0 0 0 0 0 0 0 0 0 0 0 0 0 0 0
0 0 0 0 0 0 0 0 0 0 0 0 0 0 0 0 0 0 0 0 0 0 0 0 0 0 0 0 0 0 0 0 0 0 0 0 0 0 0 0 0 0 0 0
0 0 0 0 0 0 0 0 0 0 0 0 0 0 0 0 0 0 0 0 0 0 0 0 0 0 0 0 0 0 0 0 0 0 0 0 0 0 0 0 0 0 0 0
0 0 0 0 0 0 0 0 0 0 0 0 0 0 0 0 0 0 0 0 0 0 0 0 0 0 0 0 0 0 0 0 0 0 0 0 0 0 0 0 0 0 0 0
0 0 0 0 0 0 0 0 0 0 0 0 0 0 0 0 0 0 0 0 0 0 0 0 0 0 0 0 0 0 0 0 0 0 0 0 0 0 0 0 0 0 0 0
0 0 0 0 0 0 0 0 0 0 0 0 0 0 0 0 0 0 0 0 0 0 0 0 0 0 0 0 0 0 0 0 0 0 0 0 0 0 0 0 0 0 0 0
Wind_Speed
10 11 17 20 20 11 8 8 8 7 6 8 11 12 13 9 7 9 9 9 11 14 14 11 12 12 11 12 14 17 18 17 14 13 13 12 12 11 10 9 11 12 11 11
9 20 20 13 13 13 10 10 8 5 5 7 7 11 11 11 10 10 11 12 13 12 10 10 11 11 14 16 17 18 19 19 18 15 14 12 10 8 8 7 10 12 12 12
20 14 15 14 14 18 16 15 12 6 1 3 3 8 9 8 8 8 9 11 11 13 14 12 12 13 14 16 18 18 20 20 20 17 10 7 6 5 7 10 10 12 13 13
18 14 13 17 18 18 20 14 10 8 4 5 4 7 9 8 8 10 12 11 11 12 12 11 11 11 14 17 17 18 19 20 20 18 15 17 13 13 14 10 10 11 13 13
14 14 17 21 21 18 9 9 11 10 8 7 5 6 9 5 10 12 13 13 14 13 12 12 12 13 14 14 14 15 17 18 19 19 20 19 16 12 8 7 11 11 11 12
12 8 13 14 12 13 6 6 5 6 7 15 15 10 10 8 12 9 9 12 13 13 12 12 11 9 9 9 10 12 15 17 18 20 20 20 19 14 12 11 13 11 9 10
11 10 8 8 10 11 11 9 8 9 11 12 10 12 13 10 10 11 11 11 12 11 10 10 10 9 9 10 11 12 15 16 17 19 20 20 20 17 17 15 14 12 10 9
10 11 10 7 12 12 16 15 11 10 9 5 7 14 11 10 9 9 10 10 9 10 9 10 10 10 9 10 11 12 15 16 17 19 20 18 18 14 12 13 12 13 11 12
6 7 6 8 7 11 13 14 8 4 2 4 7 7 9 5 7 9 10 10 11 10 9 9 8 8 8 9 10 12 14 14 15 17 17 16 17 15 14 13 11 10 9 9
4 5 4 6 4 8 8 9 7 9 9 8 5 7 7 7 11 11 11 12 12 9 8 7 7 7 7 8 8 9 11 13 13 14 15 13 15 15 13 12 13 12 11 11
3 4 3 5 9 11 7 9 7 7 6 7 6 8 9 11 11 12 12 11 10 9 8 6 5 5 5 5 6 7 8 9 10 12 12 12 13 13 12 12 13 13 12 12
3 2 4 6 5 6 7 8 7 8 6 6 4 8 4 7 7 7 8 8 6 6 5 4 4 4 4 5 6 7 8 9 9 10 10 11 11 12 13 13 13 13 13 13
2 1 2 2 2 2 4 5 6 4 3 4 6 8 3 2 3 4 5 6 5 4 3 3 3 4 4 4 5 6 7 7 7 8 9 10 11 12 13 13 12 12 13 12
2 2 3 5 3 3 7 8 9 6 7 7 9 7 5 3 4 4 4 4 3 3 3 3 3 3 4 4 4 5 5 6 7 8 9 10 11 12 12 12 12 12 12 13
1 3 5 7 7 6 8 12 13 11 10 11 12 11 9 7 6 4 3 2 2 2 2 3 3 3 3 3 4 4 5 6 7 8 9 10 9 9 9 10 11 11 11 11
1 3 4 6 7 7 9 13 16 17 16 15 13 13 8 6 3 3 2 2 3 4 4 4 4 3 4 5 5 5 5 6 7 8 8 8 8 9 9 10 10 10 10 10
3 3 3 5 4 5 10 11 14 15 15 16 18 13 2 4 5 6 5 4 5 5 5 5 5 6 6 6 6 6 6 6 7 8 7 8 9 9 9 9 10 10 11 10
5 4 3 4 2 8 7 4 5 9 9 9 9 4 5 7 8 7 5 5 5 5 5 6 5 5 5 4 5 5 5 7 7 7 7 8 9 8 8 9 10 9 8 9
9 6 3 3 4 7 7 3 5 8 9 5 6 4 5 4 4 6 5 4 6 7 6 6 6 5 4 4 5 6 6 6 7 8 8 8 9 9 9 9 9 7 8 8
7 7 4 3 4 7 4 4 4 4 7 3 3 3 2 1 4 8 5 5 7 6 5 5 3 2 3 4 6 8 7 8 9 9 8 8 9 9 9 9 8 6 7 7
4 5 7 6 6 7 5 4 2 4 6 5 4 4 4 7 11 8 5 6 7 7 5 4 3 3 4 4 6 7 7 8 8 7 7 7 8 8 8 8 7 8 7 7
5 5 6 5 7 8 3 2 2 4 5 4 5 5 6 10 10 7 6 6 6 5 4 3 3 3 2 4 7 7 8 6 7 8 8 8 8 7 7 9 7 8 8 8
6 6 5 7 7 5 3 4 5 4 6 6 6 7 7 9 9 8 8 6 5 5 4 3 3 3 2 4 6 8 6 7 8 9 9 8 8 7 7 9 9 7 7 6
5 3 4 6 8 8 8 7 7 6 8 9 8 8 7 8 9 8 7 6 5 5 4 3 3 3 3 3 4 6 7 8 9 10 9 8 9 8 7 6 6 7 7 7
6 3 5 8 9 9 8 7 8 9 9 9 9 8 7 7 9 8 7 6 5 4 3 3 3 3 3 3 3 5 7 9 10 9 9 8 8 8 7 6 5 6 5 7
7 7 7 9 7 7 11 11 11 11 11 10 10 10 8 6 8 7 6 5 4 3 2 2 2 3 2 3 4 4 6 9 11 9 9 7 7 7 7 7 6 6 6 9
Wind_Direction
189 198 210 206 207 210 190 192 211 217 199 186 217 232 239 237 216 226 229 222 221 226 230 224 215 207 198 193 191 194 195 194 187 188 190 192 196 194 193 192 188 185 184 181
193 217 218 206 203 211 212 215 220 235 205 199 229 243 240 233 222 218 222 223 222 227 233 227 215 206 201 199 198 197 197 194 192 195 196 196 191 191 191 187 189 188 186 184
214 217 202 202 203 208 216 215 214 212 195 219 245 272 249 244 226 228 226 224 221 219 224 223 214 209 205 204 201 199 199 197 196 194 184 171 159 160 181 192 195 193 189 188
224 224 203 205 210 203 224 213 206 212 216 240 202 263 260 238 241 234 232 229 229 227 223 222 216 209 206 208 204 201 199 198 196 189 186 184 190 195 197 192 192 188 190 189
216 203 206 213 210 201 214 186 197 210 223 245 225 246 266 234 240 241 232 228 230 228 224 224 220 214 209 205 201 201 199 198 194 191 192 193 198 200 185 173 180 186 190 190
237 215 207 215 211 198 174 149 181 203 214 239 224 222 259 219 220 232 231 228 229 230 228 229 226 215 210 201 196 195 195 198 194 192 194 196 198 190 177 181 185 187 187 190
230 222 208 185 186 189 181 170 189 200 211 232 199 212 243 221 214 216 226 231 231 227 225 225 221 212 208 199 195 192 193 197 193 193 196 199 199 194 191 188 189 186 185 190
216 215 198 188 193 189 194 190 197 199 204 222 182 218 240 224 218 220 227 232 234 229 225 226 222 213 210 204 196 191 194 196 193 194 198 199 197 196 197 192 189 190 192 193
231 235 198 202 185 173 186 200 194 183 182 204 220 251 287 238 232 230 232 233 235 233 229 227 223 213 209 204 199 194 194 194 193 194 195 196 196 196 195 190 187 189 187 183
253 254 232 197 174 192 187 175 173 194 194 219 231 230 230 211 218 222 224 229 233 232 230 226 221 215 210 205 201 194 193 194 193 192 194 195 196 196 193 186 189 189 185 180
280 251 265 186 189 188 174 184 184 187 195 189 217 245 217 199 203 211 222 226 227 227 225 222 218 211 202 194 189 189 190 189 188 190 190 190 192 191 187 189 190 188 183 180
261 258 245 223 219 194 172 174 175 189 205 194 200 255 245 205 211 213 226 230 230 226 221 215 205 191 185 187 185 185 185 186 187 185 184 188 186 184 187 190 188 185 183 183
308 291 280 218 194 178 189 183 194 200 179 184 194 251 280 230 248 245 239 241 239 229 216 203 192 191 193 192 186 185 184 185 178 175 179 182 183 185 189 189 184 182 182 181
314 231 220 228 247 234 224 219 206 198 208 217 223 240 273 281 262 263 257 248 236 231 214 206 211 208 202 196 187 183 183 175 170 172 178 185 187 188 187 184 180 181 180 180
301 251 250 268 271 254 244 228 216 216 217 219 230 231 247 251 250 253 253 263 264 244 227 224 223 216 205 199 191 183 181 172 169 173 182 188 184 180 177 177 177 177 179 180
300 255 262 272 265 256 260 239 223 223 223 230 242 243 238 248 250 252 239 231 254 258 249 240 232 223 217 207 197 186 182 177 171 178 183 178 172 173 175 175 173 173 175 174
228 233 251 257 271 277 248 224 214 215 216 217 230 234 213 241 250 248 234 226 235 248 252 245 233 225 223 212 194 190 181 171 174 179 175 171 171 172 173 169 169 172 174 170
210 205 235 261 241 231 238 210 221 228 231 226 239 246 209 231 241 240 222 219 241 252 256 256 252 244 231 205 183 167 160 168 174 176 175 171 169 169 165 166 171 171 168 170
201 198 222 237 247 267 282 259 208 215 234 238 249 256 249 257 255 252 245 233 238 238 240 239 238 239 223 193 171 153 159 166 174 180 179 174 169 166 166 169 169 164 161 163
191 191 209 221 231 242 263 297 289 210 240 265 254 266 268 165 233 251 263 260 262 263 257 250 249 237 212 194 162 159 167 174 187 186 177 169 166 166 168 167 159 150 153 156
175 196 210 218 239 261 278 309 69 180 247 290 261 250 229 218 236 263 257 252 251 255 254 241 225 220 217 184 164 169 174 191 187 164 156 158 163 163 159 152 146 146 142 141
191 192 206 202 222 246 303 38 165 262 293 300 287 265 251 250 258 269 254 250 251 254 250 229 217 233 213 175 168 176 190 181 151 148 150 154 155 152 146 144 143 144 144 144
214 201 201 208 230 258 251 241 254 264 280 287 288 288 279 277 275 273 264 252 250 246 244 231 210 223 220 186 178 183 184 152 146 146 150 148 145 144 147 148 147 145 146 147
262 232 225 254 260 269 273 274 277 275 278 282 283 285 278 277 278 275 268 256 249 246 239 224 195 199 226 206 188 178 160 150 146 148 149 147 145 143 141 142 147 151 155 153
240 237 241 254 269 283 274 265 275 285 286 288 289 282 270 270 279 276 270 258 247 244 239 215 199 201 213 188 175 163 154 147 144 145 146 145 144 144 140 137 145 152 161 164
221 218 230 250 256 264 275 282 282 281 283 285 288 292 290 270 271 276 267 254 239 231 229 208 194 181 182 165 164 161 153 149 145 145 148 148 145 143 141 134 114 103 122 136